Time,TemperatureF,DewpointF,PressureIn,WindDirection,WindDirectionDegrees,WindSpeedMPH,WindSpeedGustMPH,Humidity,HourlyPrecipIn,Conditions,Clouds,dailyrainin,SolarRadiationWatts/m^2,SoftwareType,DateUTC
2013-08-16 00:23:00,54.0,54.0,-100.00,SE,127,1.0,7.0,100,0.00,,,0.00,1.000000,,2013-08-16 04:23:00,
2013-08-16 00:33:00,54.0,54.0,-100.00,SE,127,1.0,7.0,100,0.00,,,0.00,1.000000,,2013-08-16 04:33:00,
2013-08-16 00:42:00,54.0,54.0,-100.00,SE,127,1.0,7.0,100,0.00,,,0.00,1.000000,,2013-08-16 04:42:00,
2013-08-16 00:53:00,54.0,54.0,-100.00,SE,127,1.0,7.0,100,0.00,,,0.00,1.000000,,2013-08-16 04:53:00,
2013-08-16 00:56:00,53.0,53.0,-100.00,ESE,110,1.0,5.0,100,0.00,,,0.00,1.000000,,2013-08-16 04:56:00,
2013-08-16 01:22:00,53.0,53.0,-100.00,ESE,110,1.0,5.0,100,0.00,,,0.00,1.000000,,2013-08-16 05:22:00,
2013-08-16 01:32:00,53.0,53.0,-100.00,ESE,110,1.0,5.0,100,0.00,,,0.00,1.000000,,2013-08-16 05:32:00,
2013-08-16 01:42:00,53.0,53.0,-100.00,ESE,110,1.0,5.0,100,0.00,,,0.00,1.000000,,2013-08-16 05:42:00,
2013-08-16 01:56:00,53.0,53.0,-100.00,East,81,2.0,7.0,100,0.00,,,0.00,1.000000,,2013-08-16 05:56:00,
2013-08-16 03:21:00,53.0,53.0,-100.00,ESE,107,2.0,6.0,100,0.00,,,0.00,1.000000,,2013-08-16 07:21:00,
2013-08-16 03:31:00,53.0,53.0,-100.00,ESE,107,2.0,6.0,100,0.00,,,0.00,1.000000,,2013-08-16 07:31:00,
2013-08-16 03:42:00,53.0,53.0,-100.00,ESE,107,2.0,6.0,100,0.00,,,0.00,1.000000,,2013-08-16 07:42:00,
2013-08-16 03:52:00,53.0,53.0,-100.00,ESE,107,2.0,6.0,100,0.00,,,0.00,1.000000,,2013-08-16 07:52:00,
2013-08-16 04:21:00,53.0,53.0,-100.00,ENE,74,4.0,6.0,100,0.00,,,0.00,1.000000,,2013-08-16 08:21:00,
2013-08-16 04:32:00,53.0,53.0,-100.00,ENE,74,4.0,6.0,100,0.00,,,0.00,1.000000,,2013-08-16 08:32:00,
2013-08-16 04:42:00,53.0,53.0,-100.00,ENE,74,4.0,6.0,100,0.00,,,0.00,1.000000,,2013-08-16 08:42:00,
2013-08-16 04:52:00,53.0,53.0,-100.00,ENE,74,4.0,6.0,100,0.00,,,0.00,1.000000,,2013-08-16 08:52:00,
2013-08-16 05:22:00,51.0,51.0,-100.00,SSW,198,0.0,5.0,100,0.00,,,0.00,1.000000,,2013-08-16 09:22:00,
2013-08-16 05:33:00,51.0,51.0,-100.00,SSW,198,0.0,5.0,100,0.00,,,0.00,1.000000,,2013-08-16 09:33:00,
2013-08-16 05:42:00,51.0,51.0,-100.00,SSW,198,0.0,5.0,100,0.00,,,0.00,1.000000,,2013-08-16 09:42:00,
2013-08-16 05:53:00,51.0,51.0,-100.00,SSW,198,0.0,5.0,100,0.00,,,0.00,1.000000,,2013-08-16 09:53:00,
2013-08-16 06:23:00,52.0,52.0,-100.00,ENE,71,3.0,8.0,100,0.00,,,0.00,1.000000,,2013-08-16 10:23:00,
2013-08-16 06:33:00,52.0,52.0,-100.00,ENE,71,3.0,8.0,100,0.00,,,0.00,1.000000,,2013-08-16 10:33:00,
2013-08-16 06:42:00,52.0,52.0,-100.00,ENE,71,3.0,8.0,100,0.00,,,0.00,1.000000,,2013-08-16 10:42:00,
2013-08-16 06:52:00,52.0,52.0,-100.00,ENE,71,3.0,8.0,100,0.00,,,0.00,1.000000,,2013-08-16 10:52:00,
2013-08-16 07:22:00,52.0,52.0,-100.00,ENE,77,3.0,6.0,100,0.00,,,0.00,16.000000,,2013-08-16 11:22:00,
2013-08-16 07:32:00,52.0,52.0,-100.00,ENE,77,3.0,6.0,100,0.00,,,0.00,16.000000,,2013-08-16 11:32:00,
2013-08-16 07:42:00,52.0,52.0,-100.00,ENE,77,3.0,6.0,100,0.00,,,0.00,16.000000,,2013-08-16 11:42:00,
2013-08-16 07:52:00,52.0,52.0,-100.00,ENE,77,3.0,6.0,100,0.00,,,0.00,16.000000,,2013-08-16 11:52:00,
2013-08-16 08:21:00,57.0,57.0,-100.00,ENE,72,4.0,6.0,100,0.00,,,0.00,165.000000,,2013-08-16 12:21:00,
2013-08-16 08:32:00,57.0,57.0,-100.00,ENE,72,4.0,6.0,100,0.00,,,0.00,165.000000,,2013-08-16 12:32:00,
2013-08-16 08:42:00,57.0,57.0,-100.00,ENE,72,4.0,6.0,100,0.00,,,0.00,165.000000,,2013-08-16 12:42:00,
2013-08-16 08:52:00,57.0,57.0,-100.00,ENE,72,4.0,6.0,100,0.00,,,0.00,165.000000,,2013-08-16 12:52:00,
2013-08-16 09:22:00,63.0,57.0,-100.00,ENE,77,3.0,6.0,82,0.00,,,0.00,307.000000,,2013-08-16 13:22:00,
2013-08-16 09:32:00,63.0,57.0,-100.00,ENE,77,3.0,6.0,82,0.00,,,0.00,307.000000,,2013-08-16 13:32:00,
2013-08-16 09:42:00,63.0,57.0,-100.00,ENE,77,3.0,6.0,82,0.00,,,0.00,307.000000,,2013-08-16 13:42:00,
2013-08-16 09:53:00,63.0,57.0,-100.00,ENE,77,3.0,6.0,82,0.00,,,0.00,307.000000,,2013-08-16 13:53:00,
2013-08-16 10:22:00,68.0,56.0,-100.00,East,86,3.0,4.0,66,0.00,,,0.00,453.000000,,2013-08-16 14:22:00,
2013-08-16 10:32:00,68.0,56.0,-100.00,East,86,3.0,4.0,66,0.00,,,0.00,453.000000,,2013-08-16 14:32:00,
2013-08-16 10:42:00,68.0,56.0,-100.00,East,86,3.0,4.0,66,0.00,,,0.00,453.000000,,2013-08-16 14:42:00,
2013-08-16 10:52:00,68.0,56.0,-100.00,East,86,3.0,4.0,66,0.00,,,0.00,453.000000,,2013-08-16 14:52:00,
2013-08-16 10:56:00,72.0,55.0,-100.00,WSW,239,3.0,8.0,55,0.00,,,0.00,645.000000,,2013-08-16 14:56:00,
2013-08-16 11:22:00,72.0,55.0,-100.00,WSW,239,3.0,8.0,55,0.00,,,0.00,645.000000,,2013-08-16 15:22:00,
2013-08-16 11:33:00,72.0,55.0,-100.00,WSW,239,3.0,8.0,55,0.00,,,0.00,645.000000,,2013-08-16 15:33:00,
2013-08-16 11:43:00,72.0,55.0,-100.00,WSW,239,3.0,8.0,55,0.00,,,0.00,645.000000,,2013-08-16 15:43:00,
2013-08-16 11:56:00,75.0,56.0,-100.00,SE,143,2.0,8.0,51,0.00,,,0.00,792.000000,,2013-08-16 15:56:00,
2013-08-16 12:23:00,75.0,56.0,-100.00,SE,143,2.0,8.0,51,0.00,,,0.00,792.000000,,2013-08-16 16:23:00,
2013-08-16 12:34:00,75.0,56.0,-100.00,SE,143,2.0,8.0,51,0.00,,,0.00,792.000000,,2013-08-16 16:34:00,
2013-08-16 12:44:00,75.0,56.0,-100.00,SE,143,2.0,8.0,51,0.00,,,0.00,792.000000,,2013-08-16 16:44:00,
2013-08-16 12:56:00,74.0,51.0,-100.00,SSW,208,3.0,7.0,44,0.00,,,0.00,803.000000,,2013-08-16 16:56:00,
2013-08-16 13:28:00,74.0,51.0,-100.00,SSW,208,3.0,7.0,44,0.00,,,0.00,803.000000,,2013-08-16 17:28:00,
2013-08-16 13:34:00,74.0,51.0,-100.00,SSW,208,3.0,7.0,44,0.00,,,0.00,803.000000,,2013-08-16 17:34:00,
2013-08-16 13:47:00,74.0,51.0,-100.00,SSW,208,3.0,7.0,44,0.00,,,0.00,803.000000,,2013-08-16 17:47:00,
2013-08-16 14:28:00,73.0,53.0,-100.00,WSW,254,2.0,6.0,50,0.00,,,0.00,548.000000,,2013-08-16 18:28:00,
2013-08-16 14:50:00,-999.0,-99.9,-100.00,WSW,254,2.0,6.0,50,0.00,,,0.00,548.000000,,2013-08-16 18:50:00,
2013-08-16 15:46:00,70.0,59.0,-100.00,South,179,3.0,8.0,67,0.00,,,0.00,434.000000,,2013-08-16 19:46:00,
2013-08-16 16:23:00,76.0,58.0,-100.00,ESE,112,2.0,5.0,54,-99.99,,,0.00,663.000000,,2013-08-16 20:23:00,
2013-08-16 16:38:00,76.0,58.0,-100.00,ESE,112,2.0,5.0,54,-99.99,,,0.00,663.000000,,2013-08-16 20:38:00,
2013-08-16 16:44:00,76.0,58.0,-100.00,ESE,112,2.0,5.0,54,-99.99,,,0.00,663.000000,,2013-08-16 20:44:00,
2013-08-16 16:52:00,76.0,58.0,-100.00,ESE,112,2.0,5.0,54,-99.99,,,0.00,663.000000,,2013-08-16 20:52:00,
2013-08-16 17:25:00,77.0,53.0,-100.00,WSW,255,2.0,6.0,43,0.00,,,0.00,623.000000,,2013-08-16 21:25:00,
2013-08-16 17:40:00,-999.0,-99.9,-100.00,WSW,255,2.0,6.0,-999,0.00,,,0.00,623.000000,,2013-08-16 21:40:00,
2013-08-16 17:53:00,77.0,53.0,-100.00,WSW,255,2.0,6.0,43,0.00,,,0.00,623.000000,,2013-08-16 21:53:00,
2013-08-16 21:42:00,59.0,59.0,-100.00,SW,220,0.0,6.0,99,-99.99,,,0.00,2.000000,,2013-08-17 01:42:00,
2013-08-16 21:52:00,59.0,59.0,-100.00,SW,220,0.0,6.0,99,-99.99,,,0.00,2.000000,,2013-08-17 01:52:00,
2013-08-16 22:21:00,57.0,57.0,-100.00,SW,236,0.0,7.0,100,0.00,,,0.00,1.000000,,2013-08-17 02:21:00,
2013-08-16 22:32:00,57.0,57.0,-100.00,SW,236,0.0,7.0,100,0.00,,,0.00,1.000000,,2013-08-17 02:32:00,
2013-08-16 22:42:00,57.0,57.0,-100.00,SW,236,0.0,7.0,100,0.00,,,0.00,1.000000,,2013-08-17 02:42:00,
2013-08-16 22:52:00,57.0,57.0,-100.00,SW,236,0.0,7.0,100,0.00,,,0.00,1.000000,,2013-08-17 02:52:00,
2013-08-16 23:22:00,58.0,58.0,-100.00,ENE,78,3.0,7.0,100,0.00,,,0.00,1.000000,,2013-08-17 03:22:00,
2013-08-16 23:35:00,58.0,58.0,-100.00,ENE,78,3.0,7.0,100,0.00,,,0.00,1.000000,,2013-08-17 03:35:00,
2013-08-16 23:43:00,58.0,58.0,-100.00,ENE,78,3.0,7.0,100,0.00,,,0.00,1.000000,,2013-08-17 03:43:00,
2013-08-16 23:53:00,58.0,58.0,-100.00,ENE,78,3.0,7.0,100,0.00,,,0.00,1.000000,,2013-08-17 03:53:00,